Defiance, OH

7:22 PM EDT on July 25, 2017 (GMT -0400)
Defiance Memorial

Weather History for KDFI - January, 2014

Change the Weather History Date:

Tuesday, January 21, 2014

  Actual Average Record
Temperature  
Mean Temperature 6 °F -  
Max Temperature 17 °F 29 °F 59 °F (1951)
Min Temperature -6 °F 14 °F -21 °F (1984)
Degree Days  
Heating Degree Days 59    
Moisture  
Dew Point -1 °F    
Average Humidity 65    
Maximum Humidity 79    
Minimum Humidity 42    
Precipitation  
Precipitation 0.00 in - - ()
Sea Level Pressure  
Sea Level Pressure 30.11 in    
Wind  
Wind Speed 14 mph (NNE)    
Max Wind Speed 21 mph    
Max Gust Speed 29 mph    
Visibility 6 miles    
Events Snow    
Averages and records for this station are not official NWS values.
T = Trace of Precipitation, MM = Missing Value Source: NWS Daily Summary

Daily Weather History Graph

Daily Weather History Graph

Search for Another Location

Airport or City:

Trip Planner

Search our weather history database for the weather conditions in past years. The results will help you decide how hot, cold, wet, or windy it might be!

Date:

Astronomy

Jan. 21, 2014 Rise Set
Actual Time 7:58 AM EST 5:40 PM EST
Civil Twilight 7:28 AM EST 6:10 PM EST
Nautical Twilight 6:54 AM EST 6:44 PM EST
Astronomical Twilight 6:21 AM EST 7:17 PM EST
Moon 11:16 PM EST (1/21) 10:23 AM EST (1/21)
Length of Visible Light 10h 42m
Length of Day
9h 42m
Waning Gibbous, 75% of the Moon is Illuminated
Jan 21
Waning Gibbous
Jan 24
Last Quarter
Jan 30
New
Feb 6
First Quarter
Feb 14
Full

Hourly Weather History & Observations

Time (EST) Temp. Windchill Dew Point Humidity Pressure Visibility Wind Dir Wind Speed Gust Speed Precip Events Conditions
12:05 AM 17.6 °F 1.3 °F 12.2 °F 79% 29.97 in 1.8 mi NNE 19.6 mph 24.2 mph 0.00 in Snow Light Snow
12:14 AM 17.6 °F 3.2 °F 10.4 °F 73% 29.97 in 2.0 mi NE 15.0 mph 21.9 mph 0.00 in Snow Light Snow
12:22 AM 17.6 °F 3.7 °F 10.4 °F 73% 29.97 in 3.0 mi NE 13.8 mph 28.8 mph 0.00 in Snow Light Snow
12:49 AM 15.8 °F 0.9 °F 10.4 °F 79% 29.97 in 3.0 mi NNE 15.0 mph 23.0 mph 0.00 in Snow Light Snow
12:53 AM 16.0 °F 1.1 °F 10.0 °F 77% 30.00 in 3.0 mi NNE 15.0 mph 23.0 mph 0.00 in Snow Light Snow
1:03 AM 15.8 °F 1.4 °F 10.4 °F 79% 29.97 in 2.0 mi NE 13.8 mph 21.9 mph 0.00 in Snow Light Snow
1:24 AM 15.8 °F 0.9 °F 8.6 °F 73% 29.97 in 1.5 mi NNE 15.0 mph 27.6 mph 0.00 in Snow Light Snow
1:47 AM 15.8 °F 0.3 °F 8.6 °F 73% 29.98 in 2.0 mi NE 16.1 mph 21.9 mph 0.00 in Snow Light Snow
1:48 AM 15.1 °F -0.6 °F 8.1 °F 74% 30.01 in 2.0 mi NE 16.1 mph 21.9 mph 0.00 in Snow Light Snow
1:59 AM 14.0 °F -1.4 °F 8.6 °F 79% 29.98 in 2.0 mi NE 15.0 mph 23.0 mph 0.00 in Snow Light Snow
2:07 AM 14.0 °F -2.0 °F 8.6 °F 79% 29.99 in 1.8 mi NE 16.1 mph 24.2 mph 0.00 in Snow Light Snow
2:53 AM 12.9 °F -4.4 °F 6.1 °F 74% 30.04 in 1.5 mi NNE 18.4 mph 24.2 mph 0.00 in Snow Light Snow
3:36 AM 10.4 °F -7.2 °F 5.0 °F 79% 30.01 in 2.5 mi North 17.3 mph 24.2 mph 0.00 in Snow Light Snow
3:44 AM 10.4 °F -8.6 °F 3.2 °F 73% 30.01 in 3.0 mi North 20.7 mph 27.6 mph 0.00 in Snow Light Snow
3:53 AM 10.0 °F -7.1 °F 3.0 °F 73% 30.05 in 5.0 mi North 16.1 mph 28.8 mph 0.00 in Snow Light Snow
4:53 AM 9.0 °F -7.9 °F -0.9 °F 64% 30.08 in 9.0 mi North 15.0 mph 23.0 mph 0.00 in   Overcast
5:42 AM 6.8 °F -10.7 °F -0.4 °F 72% 30.05 in 2.0 mi North 15.0 mph 24.2 mph 0.00 in Snow Light Snow
5:53 AM 7.0 °F -10.4 °F 1.0 °F 77% 30.09 in 2.0 mi North 15.0 mph - 0.00 in Snow Light Snow
6:02 AM 6.8 °F -8.6 °F 1.4 °F 79% 30.07 in 2.0 mi North 11.5 mph 21.9 mph 0.00 in Snow Light Snow
6:14 AM 6.8 °F -10.0 °F -0.4 °F 72% 30.07 in 3.0 mi North 13.8 mph - 0.00 in Snow Light Snow
6:26 AM 6.8 °F -10.0 °F -0.4 °F 72% 30.08 in 7.0 mi North 13.8 mph - 0.00 in   Overcast
6:53 AM 7.0 °F -9.8 °F -5.1 °F 58% 30.12 in 9.0 mi North 13.8 mph 23.0 mph 0.00 in   Overcast
7:53 AM 6.1 °F -8.7 °F -7.1 °F 55% 30.16 in 10.0 mi North 10.4 mph - N/A   Clear
8:53 AM 5.0 °F -10.8 °F -8.0 °F 55% 30.17 in 10.0 mi North 11.5 mph - N/A   Clear
9:53 AM 6.1 °F -10.9 °F -8.0 °F 53% 30.19 in 10.0 mi North 13.8 mph - N/A   Mostly Cloudy
10:53 AM 7.0 °F -11.6 °F -7.1 °F 53% 30.21 in 10.0 mi North 17.3 mph 24.2 mph N/A   Overcast
11:53 AM 9.0 °F -8.5 °F -7.1 °F 48% 30.21 in 10.0 mi North 16.1 mph 23.0 mph N/A   Clear
12:53 PM 10.0 °F -5.9 °F -7.1 °F 46% 30.19 in 10.0 mi North 13.8 mph - N/A   Clear
1:53 PM 10.0 °F -6.5 °F -8.0 °F 44% 30.18 in 10.0 mi North 15.0 mph 20.7 mph N/A   Clear
2:53 PM 10.9 °F -5.9 °F -8.0 °F 42% 30.19 in 10.0 mi NNW 16.1 mph - N/A   Clear
3:53 PM 10.9 °F -4.7 °F -8.0 °F 42% 30.20 in 10.0 mi NNW 13.8 mph - N/A   Clear
4:53 PM 10.0 °F -1.9 °F -9.0 °F 42% 30.23 in 10.0 mi North 8.1 mph - N/A   Clear
5:53 PM 6.1 °F -4.3 °F -9.9 °F 48% 30.25 in 10.0 mi North 5.8 mph - N/A   Clear
6:53 PM 3.9 °F -6.9 °F -9.9 °F 53% 30.25 in 10.0 mi NNW 5.8 mph - N/A   Clear
7:53 PM 3.9 °F -6.9 °F -9.9 °F 53% 30.25 in 10.0 mi NNW 5.8 mph - N/A   Clear
8:53 PM 1.9 °F -5.6 °F -11.0 °F 55% 30.25 in 10.0 mi North 3.5 mph - N/A   Clear
9:53 PM -0.9 °F - -9.9 °F 66% 30.25 in 10.0 mi Calm Calm - N/A   Clear
10:53 PM -5.1 °F - -13.0 °F 69% 30.25 in 10.0 mi Calm Calm - N/A   Clear
11:53 PM -6.0 °F - -11.9 °F 75% 30.25 in 10.0 mi Calm Calm - N/A   Clear